| time (UTC) | temp F | wind direction | speed MPH | gust MPH | rain 1hr in | rain 24hr in | rain mn in | humidity % | barometer mb |
| 20260505062806 | 69 | 286 | 15.0 | 22.0 | 0.00 | 0.00 | 0.00 | 61 | 1007.3 |
| 20260505062304 | 69 | 280 | 9.0 | 14.0 | 0.00 | 0.00 | 0.00 | 61 | 1007.4 |
| 20260505061800 | 69 | 267 | 12.0 | 17.0 | 0.00 | 0.00 | 0.00 | 60 | 1007.4 |
| 20260505061258 | 69 | 297 | 9.0 | 17.0 | 0.00 | 0.00 | 0.00 | 60 | 1007.4 |
| 20260505060755 | 69 | 291 | 8.0 | 16.0 | 0.00 | 0.00 | 0.00 | 60 | 1007.3 |
| 20260505060253 | 69 | 280 | 12.0 | 18.0 | 0.00 | 0.00 | 0.00 | 60 | 1007.2 |
| 20260505055748 | 69 | 307 | 9.0 | 18.0 | 0.00 | 0.00 | 0.00 | 60 | 1007.5 |
| 20260505055244 | 69 | 307 | 12.0 | 20.0 | 0.00 | 0.00 | 0.00 | 59 | 1007.4 |
| 20260505054742 | 69 | 315 | 12.0 | 20.0 | 0.00 | 0.00 | 0.00 | 59 | 1007.3 |
| 20260505054239 | 70 | 288 | 8.0 | 17.0 | 0.00 | 0.00 | 0.00 | 60 | 1007.3 |
| 20260505053738 | 70 | 305 | 13.0 | 18.0 | 0.00 | 0.00 | 0.00 | 59 | 1007.3 |
| 20260505053234 | 70 | 268 | 15.0 | 18.0 | 0.00 | 0.00 | 0.00 | 59 | 1007.4 |
| 20260505052731 | 70 | 238 | 9.0 | 22.0 | 0.00 | 0.00 | 0.00 | 59 | 1007.0 |
| 20260505052228 | 70 | 287 | 15.0 | 20.0 | 0.00 | 0.00 | 0.00 | 59 | 1006.9 |
| 20260505051725 | 70 | 266 | 11.0 | 16.0 | 0.00 | 0.00 | 0.00 | 59 | 1007.1 |
| 20260505051223 | 70 | 296 | 15.0 | 26.0 | 0.00 | 0.00 | 0.00 | 59 | 1006.9 |
| 20260505050721 | 70 | 293 | 15.0 | 21.0 | 0.00 | 0.00 | 0.00 | 59 | 1006.8 |
| 20260505050219 | 70 | 299 | 17.0 | 21.0 | 0.00 | 0.00 | 0.00 | 59 | 1006.7 |
| 20260505041648 | 70 | 267 | 8.0 | 15.0 | 0.00 | 0.00 | 0.00 | 60 | 1007.1 |
| 20260505041146 | 69 | 247 | 10.0 | 16.0 | 0.00 | 0.00 | 0.00 | 59 | 1007.2 |
| 20260505040643 | 70 | 285 | 8.0 | 15.0 | 0.00 | 0.00 | 0.00 | 59 | 1007.2 |
| 20260505040140 | 69 | 271 | 11.0 | 13.0 | 0.00 | 0.00 | 0.00 | 60 | 1007.4 |
| 20260505035636 | 70 | 299 | 9.0 | 16.0 | 0.00 | 0.00 | 0.00 | 59 | 1007.3 |
| 20260505035132 | 70 | 281 | 8.0 | 11.0 | 0.00 | 0.00 | 0.00 | 59 | 1007.4 |
| 20260505034629 | 70 | 281 | 5.0 | 11.0 | 0.00 | 0.00 | 0.00 | 59 | 1007.1 |
| 20260505034126 | 70 | 292 | 7.0 | 10.0 | 0.00 | 0.00 | 0.00 | 59 | 1007.4 |
| 20260505033623 | 70 | 275 | 7.0 | 15.0 | 0.00 | 0.00 | 0.00 | 59 | 1007.6 |
| 20260505033121 | 70 | 269 | 6.0 | 11.0 | 0.00 | 0.00 | 0.00 | 58 | 1007.5 |
| 20260505032619 | 71 | 279 | 9.0 | 13.0 | 0.00 | 0.00 | 0.00 | 57 | 1007.6 |
| 20260505032115 | 71 | 271 | 8.0 | 11.0 | 0.00 | 0.00 | 0.00 | 56 | 1007.5 |
| 20260505031613 | 71 | 271 | 7.0 | 11.0 | 0.00 | 0.00 | 0.00 | 57 | 1007.5 |
| 20260505031108 | 71 | 251 | 9.0 | 11.0 | 0.00 | 0.00 | 0.00 | 56 | 1007.1 |
| 20260505030606 | 71 | 251 | 9.0 | 11.0 | 0.00 | 0.00 | 0.00 | 56 | 1007.1 |
| 20260505025557 | 71 | 299 | 9.0 | 13.0 | 0.00 | 0.00 | 0.00 | 57 | 1007.1 |
| 20260505025056 | 71 | 270 | 7.0 | 11.0 | 0.00 | 0.00 | 0.00 | 56 | 1007.0 |
| 20260505024548 | 71 | 299 | 11.0 | 15.0 | 0.00 | 0.00 | 0.00 | 55 | 1007.1 |
| 20260505024045 | 71 | 281 | 10.0 | 15.0 | 0.00 | 0.00 | 0.00 | 55 | 1006.6 |
| 20260505023542 | 72 | 302 | 11.0 | 16.0 | 0.00 | 0.00 | 0.00 | 55 | 1006.5 |
| 20260505023039 | 71 | 227 | 9.0 | 13.0 | 0.00 | 0.00 | 0.00 | 56 | 1006.5 |
| 20260505022536 | 71 | 250 | 8.0 | 14.0 | 0.00 | 0.00 | 0.00 | 55 | 1006.6 |
| 20260505022034 | 71 | 238 | 7.0 | 11.0 | 0.00 | 0.00 | 0.00 | 56 | 1006.7 |
| 20260505021530 | 71 | 263 | 8.0 | 14.0 | 0.00 | 0.00 | 0.00 | 55 | 1006.8 |
| 20260505021027 | 71 | 251 | 9.0 | 15.0 | 0.00 | 0.00 | 0.00 | 55 | 1006.8 |
| 20260505020526 | 72 | 287 | 9.0 | 11.0 | 0.00 | 0.00 | 0.00 | 55 | 1006.5 |
| 20260505020024 | 72 | 289 | 8.0 | 16.0 | 0.00 | 0.00 | 0.00 | 55 | 1006.7 |
| 20260505015521 | 72 | 277 | 9.0 | 13.0 | 0.00 | 0.00 | 0.00 | 54 | 1006.6 |
| 20260505015018 | 72 | 284 | 11.0 | 16.0 | 0.00 | 0.00 | 0.00 | 54 | 1006.3 |
| 20260505014515 | 72 | 278 | 8.0 | 15.0 | 0.00 | 0.00 | 0.00 | 54 | 1006.3 |
| 20260505014012 | 72 | 224 | 7.0 | 14.0 | 0.00 | 0.00 | 0.00 | 54 | 1006.5 |
| 20260505013509 | 72 | 251 | 11.0 | 15.0 | 0.00 | 0.00 | 0.00 | 54 | 1006.2 |
| 20260505013007 | 72 | 263 | 9.0 | 11.0 | 0.00 | 0.00 | 0.00 | 54 | 1006.2 |
| 20260505012504 | 72 | 308 | 11.0 | 14.0 | 0.00 | 0.00 | 0.00 | 53 | 1006.2 |
| 20260505012001 | 73 | 279 | 9.0 | 14.0 | 0.00 | 0.00 | 0.00 | 53 | 1006.1 |
| 20260505011456 | 73 | 288 | 11.0 | 15.0 | 0.00 | 0.00 | 0.00 | 53 | 1006.0 |
| 20260505010954 | 73 | 292 | 11.0 | 15.0 | 0.00 | 0.00 | 0.00 | 52 | 1005.8 |
| 20260505010449 | 73 | 291 | 11.0 | 15.0 | 0.00 | 0.00 | 0.00 | 52 | 1006.1 |
| 20260505005946 | 73 | 284 | 12.0 | 14.0 | 0.00 | 0.00 | 0.00 | 52 | 1006.0 |
| 20260505005443 | 74 | 278 | 9.0 | 17.0 | 0.00 | 0.00 | 0.00 | 51 | 1006.0 |
| 20260505004941 | 74 | 285 | 15.0 | 22.0 | 0.00 | 0.00 | 0.00 | 50 | 1005.8 |
| 20260505004437 | 74 | 292 | 7.0 | 11.0 | 0.00 | 0.00 | 0.00 | 52 | 1005.8 |
| 20260505003934 | 74 | 274 | 11.0 | 14.0 | 0.00 | 0.00 | 0.00 | 51 | 1005.8 |
| 20260505003431 | 74 | 278 | 8.0 | 11.0 | 0.00 | 0.00 | 0.00 | 51 | 1005.9 |
| 20260505002927 | 74 | 307 | 16.0 | 18.0 | 0.00 | 0.00 | 0.00 | 50 | 1005.9 |
| 20260505002424 | 74 | 284 | 9.0 | 15.0 | 0.00 | 0.00 | 0.00 | 50 | 1005.7 |
| 20260505001922 | 75 | 247 | 11.0 | 18.0 | 0.00 | 0.00 | 0.00 | 50 | 1005.7 |
| 20260505001419 | 75 | 258 | 9.0 | 14.0 | 0.00 | 0.00 | 0.00 | 50 | 1005.7 |
| 20260505000916 | 75 | 263 | 6.0 | 17.0 | 0.00 | 0.00 | 0.00 | 49 | 1005.7 |
| 20260505000414 | 75 | 295 | 11.0 | 15.0 | 0.00 | 0.00 | 0.00 | 49 | 1005.4 |
| 20260504235910 | 75 | 233 | 14.0 | 21.0 | 0.00 | 0.00 | 0.00 | 48 | 1005.6 |
| 20260504235408 | 75 | 280 | 9.0 | 16.0 | 0.00 | 0.00 | 0.00 | 49 | 1005.5 |
| 20260504234904 | 76 | 258 | 10.0 | 17.0 | 0.00 | 0.00 | 0.00 | 49 | 1005.4 |
| 20260504234402 | 76 | 291 | 11.0 | 18.0 | 0.00 | 0.00 | 0.00 | 48 | 1005.7 |
| 20260504233858 | 76 | 294 | 11.0 | 17.0 | 0.00 | 0.00 | 0.00 | 48 | 1005.7 |
| 20260504233354 | 76 | 279 | 13.0 | 15.0 | 0.00 | 0.00 | 0.00 | 47 | 1005.7 |
| 20260504232850 | 76 | 276 | 12.0 | 18.0 | 0.00 | 0.00 | 0.00 | 47 | 1005.9 |
| 20260504232348 | 76 | 272 | 16.0 | 22.0 | 0.00 | 0.00 | 0.00 | 46 | 1005.9 |
| 20260504231844 | 76 | 255 | 11.0 | 20.0 | 0.00 | 0.00 | 0.00 | 46 | 1006.2 |
| 20260504231341 | 76 | 299 | 16.0 | 20.0 | 0.00 | 0.00 | 0.00 | 46 | 1006.1 |
| 20260504230837 | 76 | 284 | 11.0 | 21.0 | 0.00 | 0.00 | 0.00 | 47 | 1006.0 |
| 20260504230335 | 77 | 275 | 12.0 | 13.0 | 0.00 | 0.00 | 0.00 | 47 | 1006.0 |
| 20260504225834 | 77 | 278 | 11.0 | 13.0 | 0.00 | 0.00 | 0.00 | 47 | 1006.1 |
| 20260504225330 | 77 | 273 | 11.0 | 13.0 | 0.00 | 0.00 | 0.00 | 47 | 1006.2 |
| 20260504224827 | 76 | 277 | 16.0 | 18.0 | 0.00 | 0.00 | 0.00 | 46 | 1006.1 |
| 20260504224324 | 76 | 273 | 8.0 | 13.0 | 0.00 | 0.00 | 0.00 | 47 | 1006.4 |
| 20260504223820 | 75 | 277 | 12.0 | 14.0 | 0.00 | 0.00 | 0.00 | 46 | 1006.2 |
| 20260504223316 | 75 | 328 | 9.0 | 11.0 | 0.00 | 0.00 | 0.00 | 49 | 1006.4 |
| 20260504222813 | 75 | 267 | 5.0 | 10.0 | 0.00 | 0.00 | 0.00 | 47 | 1006.2 |
| 20260504222310 | 75 | 258 | 4.0 | 10.0 | 0.00 | 0.00 | 0.00 | 49 | 1006.4 |
| 20260504221809 | 75 | 287 | 8.0 | 13.0 | 0.00 | 0.00 | 0.00 | 47 | 1006.5 |
| 20260504221305 | 75 | 233 | 7.0 | 13.0 | 0.00 | 0.00 | 0.00 | 47 | 1006.5 |
| 20260504220801 | 75 | 279 | 10.0 | 15.0 | 0.00 | 0.00 | 0.00 | 46 | 1006.5 |
| 20260504220258 | 75 | 272 | 12.0 | 17.0 | 0.00 | 0.00 | 0.00 | 46 | 1006.8 |
| 20260504215756 | 75 | 258 | 10.0 | 15.0 | 0.00 | 0.00 | 0.00 | 48 | 1006.8 |
| 20260504215252 | 75 | 262 | 9.0 | 11.0 | 0.00 | 0.00 | 0.00 | 49 | 1006.6 |
| 20260504214748 | 75 | 238 | 5.0 | 7.0 | 0.00 | 0.00 | 0.00 | 47 | 1006.4 |
| 20260504214244 | 74 | 246 | 7.0 | 8.0 | 0.00 | 0.00 | 0.00 | 47 | 1007.1 |
| 20260504213741 | 74 | 210 | 3.0 | 6.0 | 0.00 | 0.00 | 0.00 | 47 | 1006.9 |
| 20260504213238 | 74 | 201 | 3.0 | 3.0 | 0.00 | 0.00 | 0.00 | 45 | 1007.5 |
| 20260504212735 | 74 | 178 | 1.0 | 3.0 | 0.00 | 0.00 | 0.00 | 44 | 1008.1 |
| 20260504212231 | 74 | 304 | 6.0 | 7.0 | 0.00 | 0.00 | 0.00 | 44 | 1008.3 |
| 20260504211729 | 74 | 276 | 5.0 | 8.0 | 0.00 | 0.00 | 0.00 | 45 | 1008.5 |
| 20260504211225 | 75 | 273 | 8.0 | 10.0 | 0.00 | 0.00 | 0.00 | 43 | 1008.3 |
| 20260504210722 | 74 | 263 | 8.0 | 11.0 | 0.00 | 0.00 | 0.00 | 44 | 1008.5 |
| 20260504210220 | 75 | 297 | 9.0 | 13.0 | 0.00 | 0.00 | 0.00 | 43 | 1008.5 |
| 20260504205716 | 75 | 282 | 7.0 | 13.0 | 0.00 | 0.00 | 0.00 | 44 | 1008.7 |
| 20260504205214 | 75 | 283 | 10.0 | 11.0 | 0.00 | 0.00 | 0.00 | 43 | 1009.0 |
| 20260504204706 | 74 | 266 | 12.0 | 15.0 | 0.00 | 0.00 | 0.00 | 43 | 1008.9 |
| 20260504204205 | 75 | 283 | 7.0 | 9.0 | 0.00 | 0.00 | 0.00 | 43 | 1008.7 |
| 20260504203704 | 75 | 254 | 4.0 | 9.0 | 0.00 | 0.00 | 0.00 | 44 | 1008.8 |
| 20260504203201 | 75 | 260 | 4.0 | 11.0 | 0.00 | 0.00 | 0.00 | 45 | 1008.7 |
| 20260504202700 | 75 | 298 | 9.0 | 10.0 | 0.00 | 0.00 | 0.00 | 43 | 1008.8 |
| 20260504202158 | 75 | 289 | 12.0 | 13.0 | 0.00 | 0.00 | 0.00 | 43 | 1008.7 |
| 20260504201655 | 75 | 278 | 12.0 | 15.0 | 0.00 | 0.00 | 0.00 | 43 | 1008.6 |
| 20260504201152 | 75 | 278 | 8.0 | 16.0 | 0.00 | 0.00 | 0.00 | 44 | 1008.7 |
| 20260504200649 | 75 | 277 | 4.0 | 8.0 | 0.00 | 0.00 | 0.00 | 45 | 1008.8 |
| 20260504200146 | 75 | 272 | 7.0 | 13.0 | 0.00 | 0.00 | 0.00 | 44 | 1008.6 |
| 20260504195642 | 75 | 281 | 6.0 | 11.0 | 0.00 | 0.00 | 0.00 | 44 | 1008.5 |
| 20260504195138 | 75 | 280 | 6.0 | 11.0 | 0.00 | 0.00 | 0.00 | 43 | 1008.5 |
| 20260504194635 | 75 | 252 | 8.0 | 15.0 | 0.00 | 0.00 | 0.00 | 43 | 1008.3 |
| 20260504194131 | 76 | 300 | 11.0 | 17.0 | 0.00 | 0.00 | 0.00 | 43 | 1008.5 |
| 20260504193627 | 76 | 296 | 11.0 | 11.0 | 0.00 | 0.00 | 0.00 | 43 | 1008.6 |
| 20260504193126 | 76 | 258 | 10.0 | 15.0 | 0.00 | 0.00 | 0.00 | 44 | 1008.4 |
| 20260504192624 | 76 | 264 | 11.0 | 16.0 | 0.00 | 0.00 | 0.00 | 44 | 1008.4 |
| 20260504192121 | 76 | 291 | 11.0 | 15.0 | 0.00 | 0.00 | 0.00 | 46 | 1008.6 |
| 20260504191620 | 76 | 316 | 14.0 | 21.0 | 0.00 | 0.00 | 0.00 | 43 | 1008.3 |
| 20260504191115 | 76 | 316 | 14.0 | 21.0 | 0.00 | 0.00 | 0.00 | 43 | 1008.3 |
| 20260504190612 | 76 | 299 | 18.0 | 24.0 | 0.00 | 0.00 | 0.00 | 43 | 1008.1 |
| 20260504190108 | 77 | 328 | 13.0 | 20.0 | 0.00 | 0.00 | 0.00 | 45 | 1008.3 |
| 20260504185605 | 77 | 287 | 12.0 | 25.0 | 0.00 | 0.00 | 0.00 | 45 | 1007.9 |
| 20260504185101 | 77 | 260 | 15.0 | 22.0 | 0.00 | 0.00 | 0.00 | 44 | 1007.8 |
| 20260504184557 | 77 | 284 | 14.0 | 24.0 | 0.00 | 0.00 | 0.00 | 43 | 1007.5 |
| 20260504184052 | 77 | 286 | 13.0 | 26.0 | 0.00 | 0.00 | 0.00 | 43 | 1007.6 |
| 20260504183550 | 77 | 276 | 17.0 | 20.0 | 0.00 | 0.00 | 0.00 | 45 | 1007.6 |
| 20260504183048 | 77 | 287 | 20.0 | 25.0 | 0.00 | 0.00 | 0.00 | 45 | 1007.6 |
| 20260504182545 | 77 | 275 | 16.0 | 23.0 | 0.00 | 0.00 | 0.00 | 46 | 1007.8 |
| 20260504182042 | 76 | 277 | 5.0 | 14.0 | 0.00 | 0.00 | 0.00 | 51 | 1007.8 |
| 20260504181539 | 75 | 281 | 14.0 | 18.0 | 0.00 | 0.00 | 0.00 | 49 | 1008.3 |
| 20260504181037 | 75 | 269 | 7.0 | 13.0 | 0.00 | 0.00 | 0.00 | 53 | 1008.0 |
| 20260504180536 | 75 | 306 | 11.0 | 17.0 | 0.00 | 0.00 | 0.00 | 51 | 1008.3 |
| 20260504180034 | 75 | 301 | 12.0 | 14.0 | 0.00 | 0.00 | 0.00 | 51 | 1008.3 |
| 20260504175531 | 74 | 291 | 8.0 | 21.0 | 0.00 | 0.00 | 0.00 | 55 | 1008.6 |
| 20260504175028 | 74 | 221 | 6.0 | 13.0 | 0.00 | 0.00 | 0.00 | 57 | 1008.5 |
| 20260504174526 | 73 | 272 | 7.0 | 13.0 | 0.00 | 0.00 | 0.00 | 57 | 1008.7 |
| 20260504174022 | 73 | 283 | 7.0 | 9.0 | 0.00 | 0.00 | 0.00 | 56 | 1009.0 |
| 20260504173519 | 73 | 284 | 9.0 | 11.0 | 0.00 | 0.00 | 0.00 | 55 | 1008.8 |
| 20260504173017 | 73 | 297 | 12.0 | 16.0 | 0.00 | 0.00 | 0.00 | 54 | 1009.1 |
| 20260504172513 | 74 | 250 | 4.0 | 10.0 | 0.00 | 0.00 | 0.00 | 55 | 1009.2 |
| 20260504172009 | 74 | 289 | 9.0 | 11.0 | 0.00 | 0.00 | 0.00 | 55 | 1009.4 |
| 20260504171506 | 74 | 308 | 9.0 | 13.0 | 0.00 | 0.00 | 0.00 | 57 | 1009.5 |
| 20260504171003 | 74 | 315 | 6.0 | 8.0 | 0.00 | 0.00 | 0.00 | 55 | 1009.5 |
| 20260504170500 | 74 | 286 | 7.0 | 14.0 | 0.00 | 0.00 | 0.00 | 56 | 1009.8 |
| 20260504160419 | 74 | 290 | 11.0 | 21.0 | 0.00 | 0.00 | 0.00 | 57 | 1010.4 |
| 20260504150843 | 70 | 279 | 11.0 | 16.0 | 0.00 | 0.00 | 0.00 | 63 | 1010.2 |
| 20260504150340 | 70 | 317 | 12.0 | 18.0 | 0.00 | 0.00 | 0.00 | 64 | 1010.1 |
| 20260504141310 | 67 | 289 | 8.0 | 15.0 | 0.00 | 0.00 | 0.00 | 69 | 1010.7 |
| 20260504140806 | 66 | 310 | 8.0 | 13.0 | 0.00 | 0.00 | 0.00 | 72 | 1011.0 |
| 20260504140302 | 66 | 274 | 8.0 | 13.0 | 0.00 | 0.00 | 0.00 | 71 | 1011.0 |
| 20260504130731 | 63 | 248 | 7.0 | 9.0 | 0.00 | 0.00 | 0.00 | 75 | 1011.5 |
| 20260504130226 | 62 | 279 | 7.0 | 8.0 | 0.00 | 0.00 | 0.00 | 76 | 1011.3 |
| 20260504120151 | 60 | 205 | 3.0 | 3.0 | 0.00 | 0.00 | 0.00 | 77 | 1011.5 |
| 20260504110618 | 60 | 191 | 1.0 | 2.0 | 0.00 | 0.00 | 0.00 | 76 | 1011.3 |
| 20260504110114 | 61 | 193 | 1.0 | 2.0 | 0.00 | 0.00 | 0.00 | 76 | 1011.1 |
| 20260504100540 | 61 | 190 | 0.0 | 0.0 | 0.00 | 0.00 | 0.00 | 75 | 1011.2 |
| 20260504081933 | 58 | 161 | 2.0 | 2.0 | 0.00 | 0.00 | 0.00 | 80 | 1011.7 |
| 20260504081430 | 59 | 187 | 0.0 | 0.0 | 0.00 | 0.00 | 0.00 | 77 | 1011.5 |
| 20260504080926 | 59 | 136 | 0.0 | 1.0 | 0.00 | 0.00 | 0.00 | 77 | 1011.8 |
| 20260504080423 | 59 | 142 | 0.0 | 0.0 | 0.00 | 0.00 | 0.00 | 77 | 1011.6 |
| 20260504070350 | 63 | 280 | 7.0 | 15.0 | 0.00 | 0.00 | 0.00 | 67 | 1010.7 |